Content
SEND FEEDBACK

Daily
Averages
Monthly
Summary
Turkey

ADIYAMAN, TURKEY


Home > Middle East > Turkey
Elevation: 2224 feet     Latitude: 37 48N     Longitude: 038 18E

WEATHER
 
SELECT A DAY
Number of Records: 142,206;   Date Range: 7/1/96 - 7/26/14
 
SHARE

PRINT THIS DATA

[ ← Previous Day ]
WEATHER ALMANAC - FEBRUARY 3, 2013
[ Next Day → ]
[ °C ]   °F
Weather ElementAverageHighLow
Temperature34.9 °F42.8 °F (12:50 pm)23 °F (2:50 am)
Dewpoint27.6 °F35.6 °F (11:20 pm)19.4 °F (4:50 am)
Humidity76.1 %93 % (12:50 am)53 % (2:20 pm)
Barometer30.29 in30.36 in (7:20 pm)30.18 in (12:50 am)
Wind Speed3.9 mph6.9 mph (1:20 am)
Weather ElementAverage
Visibility6.2 mi
Wind DirectionSSE (153.8 °)

Weather ElementTotal
Precipitation---
Heating Degree Days32.1 (Base 65)
Averaged from 47 records on February 3, 2013
WEATHER CONDITIONS BREAKOUT
WIND DIRECTION BREAKOUT
WEATHER BY HOUR - FEBRUARY 3, 2013
[ °C ]   °F
Local TimeTemperatureDewpointHumidityBarometerVisibilityWind DirectionWind SpeedGust SpeedPrecipitationEventsConditions
12:50 AM24.8 °F23.0 °F93 %30.18 inSSW (210°)4.6 mphClear
1:20 AM24.8 °F23.0 °F93 %30.18 inSSW (210°)6.9 mphClear
1:50 AM24.8 °F23.0 °F93 %30.18 inSW (220°)5.8 mphClear
2:20 AM24.8 °F21.2 °F86 %30.18 inWSW (250°)4.6 mphClear
2:50 AM23.0 °F21.2 °F93 %30.21 inSW (220°)4.6 mphClear
3:20 AM24.8 °F21.2 °F86 %30.21 inVariable1.2 mphClear
3:50 AM24.8 °F21.2 °F86 %30.21 inWNW (290°)3.5 mphClear
4:20 AM24.8 °F21.2 °F86 %30.21 inWNW (290°)2.3 mphClear
4:50 AM23.0 °F19.4 °F86 %30.24 inSSW (200°)4.6 mphClear
5:20 AM23.0 °F21.2 °F93 %30.24 inSW (220°)6.9 mphClear
5:50 AM23.0 °F21.2 °F93 %30.24 inSSW (210°)5.8 mphClear
6:20 AM23.0 °F21.2 °F93 %30.27 inSW (220°)6.9 mphClear
6:50 AM23.0 °F21.2 °F93 %30.27 inSSW (210°)4.6 mphClear
7:20 AM24.8 °F23.0 °F93 %30.27 inSW (220°)4.6 mphClear
7:50 AM30.2 °F26.6 °F86 %30.30 inSW (220°)3.5 mphClear
8:20 AM33.8 °F26.6 °F75 %30.30 inWSW (250°)2.3 mphClear
8:50 AM33.8 °F26.6 °F75 %30.30 inNorth (360°)2.3 mphClear
9:20 AM35.6 °F26.6 °F70 %30.30 in6.2 miNorth (10°)4.6 mphMostly Cloudy
9:50 AM35.6 °F26.6 °F70 %30.33 in6.2 miNorth (10°)5.8 mphMostly Cloudy
10:20 AM37.4 °F28.4 °F70 %30.33 in6.2 miNorth (10°)5.8 mphMostly Cloudy
10:50 AM37.4 °F28.4 °F70 %30.33 in6.2 miNNE (20°)6.9 mphMostly Cloudy
11:20 AM39.2 °F28.4 °F65 %30.30 in6.2 miNorth (10°)5.8 mphMostly Cloudy
11:50 AM41.0 °F30.2 °F65 %30.30 in6.2 miNNE (20°)6.9 mphMostly Cloudy
12:20 PM41.0 °F28.4 °F61 %30.30 in6.2 miNorth (10°)6.9 mphMostly Cloudy
12:50 PM42.8 °F28.4 °F57 %30.30 in6.2 miNNE (20°)5.8 mphMostly Cloudy
1:20 PM42.8 °F28.4 °F57 %30.30 in6.2 miNNE (30°)4.6 mphMostly Cloudy
1:50 PM42.8 °F28.4 °F57 %30.30 in6.2 miNorth (350°)4.6 mphMostly Cloudy
2:20 PM42.8 °F26.6 °F53 %30.30 in6.2 miNNE (20°)5.8 mphMostly Cloudy
2:50 PM42.8 °F28.4 °F57 %30.30 in6.2 miNorth (10°)4.6 mphMostly Cloudy
3:20 PM42.8 °F28.4 °F57 %30.30 in6.2 miNNE (20°)4.6 mphMostly Cloudy
3:50 PM42.8 °F26.6 °F53 %30.30 in6.2 miNorth (10°)4.6 mphMostly Cloudy
4:20 PM42.8 °F28.4 °F57 %30.30 in6.2 miNorth (350°)2.3 mphMostly Cloudy
4:50 PM42.8 °F28.4 °F57 %30.33 in6.2 miNNW (340°)2.3 mphMostly Cloudy
5:20 PM41.0 °F30.2 °F65 %30.33 in6.2 miVariable2.3 mphMostly Cloudy
5:50 PM41.0 °F32.0 °F70 %30.33 in6.2 miWest (270°)2.3 mphMostly Cloudy
6:20 PM41.0 °F32.0 °F70 %30.33 in6.2 miWSW (240°)2.3 mphMostly Cloudy
6:50 PM41.0 °F32.0 °F70 %30.33 in6.2 miWest (270°)1.2 mphMostly Cloudy
7:20 PM39.2 °F33.8 °F81 %30.36 in6.2 miWSW (240°)2.3 mphMostly Cloudy
7:50 PM39.2 °F33.8 °F81 %30.36 in6.2 miWSW (250°)3.5 mphMostly Cloudy
8:20 PM39.2 °F33.8 °F81 %30.36 in6.2 miSW (220°)2.3 mphMostly Cloudy
8:50 PM39.2 °F33.8 °F81 %30.36 in6.2 miCalmMostly Cloudy
9:20 PM39.2 °F33.8 °F81 %30.36 in6.2 miCalmMostly Cloudy
9:50 PM39.2 °F33.8 °F81 %30.36 in6.2 miCalmMostly Cloudy
10:20 PM39.2 °F33.8 °F81 %30.36 in6.2 miCalmMostly Cloudy
10:50 PM39.2 °F33.8 °F81 %30.36 in6.2 miWSW (250°)2.3 mphMostly Cloudy
11:20 PM39.2 °F35.6 °F87 %30.33 in6.2 miSW (230°)3.5 mphMostly Cloudy
11:50 PM39.2 °F35.6 °F87 %30.33 in6.2 miSW (220°)3.5 mphMostly Cloudy
Hourly data recorded from LTCP, located miles away from Adiyaman, Turkey







STORIES FROM OUR PARTNERS